Year,Month,Day,Hour,Minute,Value (Times are PST for temperature in C)
2007,06,25,00,00,8.20
2007,06,25,00,01,8.20
2007,06,25,00,02,8.20
2007,06,25,00,03,8.20
2007,06,25,00,04,8.30
2007,06,25,00,05,8.30
2007,06,25,00,06,8.30
2007,06,25,00,07,8.30
2007,06,25,00,08,8.30
2007,06,25,00,09,8.30
2007,06,25,00,10,8.30
2007,06,25,00,11,8.30
2007,06,25,00,12,8.30
2007,06,25,00,13,8.30
2007,06,25,00,14,8.30
2007,06,25,00,15,8.30
2007,06,25,00,16,8.30
2007,06,25,00,17,8.30
2007,06,25,00,18,8.40
2007,06,25,00,19,8.40
2007,06,25,00,20,8.40
2007,06,25,00,21,8.40
2007,06,25,00,22,8.40
2007,06,25,00,23,8.40
2007,06,25,00,24,8.30
2007,06,25,00,25,8.30
2007,06,25,00,26,8.30
2007,06,25,00,27,8.30
2007,06,25,00,28,8.30
2007,06,25,00,29,8.30
2007,06,25,00,30,8.30
2007,06,25,00,31,8.30
2007,06,25,00,32,8.30
2007,06,25,00,33,8.30
2007,06,25,00,34,8.20
2007,06,25,00,35,8.20
2007,06,25,00,36,8.20
2007,06,25,00,37,8.20
2007,06,25,00,38,8.20
2007,06,25,00,39,8.20
2007,06,25,00,40,8.20
2007,06,25,00,41,8.20
2007,06,25,00,42,8.20
2007,06,25,00,43,8.10
2007,06,25,00,44,8.10
2007,06,25,00,45,8.10
2007,06,25,00,46,8.10
2007,06,25,00,47,8.10
2007,06,25,00,48,8.00
2007,06,25,00,49,8.00
2007,06,25,00,50,7.90
2007,06,25,00,51,7.90
2007,06,25,00,52,7.80
2007,06,25,00,53,7.80
2007,06,25,00,54,7.80
2007,06,25,00,55,7.70
2007,06,25,00,56,7.70
2007,06,25,00,57,7.70
2007,06,25,00,58,7.70
2007,06,25,00,59,7.60
2007,06,25,01,00,7.60
2007,06,25,01,01,7.60
2007,06,25,01,02,7.60
2007,06,25,01,03,7.60
2007,06,25,01,04,7.50
2007,06,25,01,05,7.50
2007,06,25,01,06,7.50
2007,06,25,01,07,7.50
2007,06,25,01,08,7.50
2007,06,25,01,09,7.50
2007,06,25,01,10,7.40
2007,06,25,01,11,7.50
2007,06,25,01,12,7.50
2007,06,25,01,13,7.50
2007,06,25,01,14,7.50
2007,06,25,01,15,7.50
2007,06,25,01,16,7.40
2007,06,25,01,17,7.40
2007,06,25,01,18,7.40
2007,06,25,01,19,7.40
2007,06,25,01,20,7.40
2007,06,25,01,21,7.40
2007,06,25,01,22,7.40
2007,06,25,01,23,7.30
2007,06,25,01,24,7.30
2007,06,25,01,25,7.30
2007,06,25,01,26,7.30
2007,06,25,01,27,7.30
2007,06,25,01,28,7.30
2007,06,25,01,29,7.20
2007,06,25,01,30,7.20
2007,06,25,01,31,7.20
2007,06,25,01,32,7.20
2007,06,25,01,33,7.20
2007,06,25,01,34,7.20
2007,06,25,01,35,7.20
2007,06,25,01,36,7.20
2007,06,25,01,37,7.20
2007,06,25,01,38,7.20
2007,06,25,01,39,7.20
2007,06,25,01,40,7.20
2007,06,25,01,41,7.20
2007,06,25,01,42,7.20
2007,06,25,01,43,7.20
2007,06,25,01,44,7.20
2007,06,25,01,45,7.20
2007,06,25,01,46,7.20
2007,06,25,01,47,7.20
2007,06,25,01,48,7.20
2007,06,25,01,49,7.20
2007,06,25,01,50,7.20
2007,06,25,01,51,7.20
2007,06,25,01,52,7.20
2007,06,25,01,53,7.20
2007,06,25,01,54,7.20
2007,06,25,01,55,7.20
2007,06,25,01,56,7.20
2007,06,25,01,57,7.20
2007,06,25,01,58,7.20
2007,06,25,01,59,7.20
2007,06,25,02,00,7.20
2007,06,25,02,01,7.20
2007,06,25,02,02,7.20
2007,06,25,02,03,7.20
2007,06,25,02,04,7.20
2007,06,25,02,05,7.20
2007,06,25,02,06,7.20
2007,06,25,02,07,7.20
2007,06,25,02,08,7.20
2007,06,25,02,09,7.20
2007,06,25,02,10,7.20
2007,06,25,02,11,7.30
2007,06,25,02,12,7.30
2007,06,25,02,13,7.30
2007,06,25,02,14,7.20
2007,06,25,02,15,7.20
2007,06,25,02,16,7.20
2007,06,25,02,17,7.20
2007,06,25,02,18,7.20
2007,06,25,02,19,7.20
2007,06,25,02,20,7.20
2007,06,25,02,21,7.20
2007,06,25,02,22,7.20
2007,06,25,02,23,7.20
2007,06,25,02,24,7.20
2007,06,25,02,25,7.10
2007,06,25,02,26,7.10
2007,06,25,02,27,7.10
2007,06,25,02,28,7.00
2007,06,25,02,29,7.00
2007,06,25,02,30,7.00
2007,06,25,02,31,6.90
2007,06,25,02,32,6.90
2007,06,25,02,33,6.90
2007,06,25,02,34,6.90
2007,06,25,02,35,6.90
2007,06,25,02,36,6.80
2007,06,25,02,37,6.80
2007,06,25,02,38,6.80
2007,06,25,02,39,6.80
2007,06,25,02,40,6.80
2007,06,25,02,41,6.80
2007,06,25,02,42,6.80
2007,06,25,02,43,6.70
2007,06,25,02,44,6.70
2007,06,25,02,45,6.70
2007,06,25,02,46,6.70
2007,06,25,02,47,6.70
2007,06,25,02,48,6.70
2007,06,25,02,49,6.70
2007,06,25,02,50,6.70
2007,06,25,02,51,6.70
2007,06,25,02,52,6.70
2007,06,25,02,53,6.80
2007,06,25,02,54,6.80
2007,06,25,02,55,6.80
2007,06,25,02,56,6.80
2007,06,25,02,57,6.80
2007,06,25,02,58,6.80
2007,06,25,02,59,6.80
2007,06,25,03,00,6.80
2007,06,25,03,01,6.80
2007,06,25,03,02,6.80
2007,06,25,03,03,6.80
2007,06,25,03,04,6.80
2007,06,25,03,05,6.80
2007,06,25,03,06,6.80
2007,06,25,03,07,6.80
2007,06,25,03,08,6.80
2007,06,25,03,09,6.80
2007,06,25,03,10,6.80
2007,06,25,03,11,6.80
2007,06,25,03,12,6.80
2007,06,25,03,13,6.80
2007,06,25,03,14,6.70
2007,06,25,03,15,6.70
2007,06,25,03,16,6.70
2007,06,25,03,17,6.80
2007,06,25,03,18,6.80
2007,06,25,03,19,6.80
2007,06,25,03,20,6.90
2007,06,25,03,21,6.90
2007,06,25,03,22,6.90
2007,06,25,03,23,7.00
2007,06,25,03,24,7.00
2007,06,25,03,25,7.00
2007,06,25,03,26,7.00
2007,06,25,03,27,7.10
2007,06,25,03,28,7.10
2007,06,25,03,29,7.10
2007,06,25,03,30,7.10
2007,06,25,03,31,7.00
2007,06,25,03,32,7.00
2007,06,25,03,33,7.00
2007,06,25,03,34,7.00
2007,06,25,03,35,7.00
2007,06,25,03,36,7.00
2007,06,25,03,37,7.00
2007,06,25,03,38,6.90
2007,06,25,03,39,6.90
2007,06,25,03,40,7.00
2007,06,25,03,41,7.00
2007,06,25,03,42,7.00
2007,06,25,03,43,7.00
2007,06,25,03,44,7.00
2007,06,25,03,45,7.00
2007,06,25,03,46,7.00
2007,06,25,03,47,7.10
2007,06,25,03,48,7.10
2007,06,25,03,49,7.10
2007,06,25,03,50,7.10
2007,06,25,03,51,7.10
2007,06,25,03,52,7.20
2007,06,25,03,53,7.20
2007,06,25,03,54,7.20
2007,06,25,03,55,7.20
2007,06,25,03,56,7.10
2007,06,25,03,57,7.20
2007,06,25,03,58,7.20
2007,06,25,03,59,7.10
2007,06,25,04,00,7.10
2007,06,25,04,01,7.10
2007,06,25,04,02,7.10
2007,06,25,04,03,7.10
2007,06,25,04,04,7.10
2007,06,25,04,05,7.00
2007,06,25,04,06,7.00
2007,06,25,04,07,7.00
2007,06,25,04,08,6.90
2007,06,25,04,09,6.90
2007,06,25,04,10,6.80
2007,06,25,04,11,6.80
2007,06,25,04,12,6.70
2007,06,25,04,13,6.60
2007,06,25,04,14,6.60
2007,06,25,04,15,6.60
2007,06,25,04,16,6.60
2007,06,25,04,17,6.60
2007,06,25,04,18,6.60
2007,06,25,04,19,6.60
2007,06,25,04,20,6.60
2007,06,25,04,21,6.50
2007,06,25,04,22,6.50
2007,06,25,04,23,6.50
2007,06,25,04,24,6.60
2007,06,25,04,25,6.60
2007,06,25,04,26,6.60
2007,06,25,04,27,6.60
2007,06,25,04,28,6.60
2007,06,25,04,29,6.60
2007,06,25,04,30,6.60
2007,06,25,04,31,6.60
2007,06,25,04,32,6.60
2007,06,25,04,33,6.60
2007,06,25,04,34,6.60
2007,06,25,04,35,6.60
2007,06,25,04,36,6.60
2007,06,25,04,37,6.60
2007,06,25,04,38,6.60
2007,06,25,04,39,6.60
2007,06,25,04,40,6.70
2007,06,25,04,41,6.70
2007,06,25,04,42,6.60
2007,06,25,04,43,6.60
2007,06,25,04,44,6.60
2007,06,25,04,45,6.50
2007,06,25,04,46,6.50
2007,06,25,04,47,6.50
2007,06,25,04,48,6.50
2007,06,25,04,49,6.50
2007,06,25,04,50,6.40
2007,06,25,04,51,6.40
2007,06,25,04,52,6.30
2007,06,25,04,53,6.30
2007,06,25,04,54,6.40
2007,06,25,04,55,6.50
2007,06,25,04,56,6.50
2007,06,25,04,57,6.60
2007,06,25,04,58,6.60
2007,06,25,04,59,6.60
2007,06,25,05,00,6.60
2007,06,25,05,01,6.60
2007,06,25,05,02,6.60
2007,06,25,05,03,6.60
2007,06,25,05,04,6.70
2007,06,25,05,05,6.70
2007,06,25,05,06,6.70
2007,06,25,05,07,6.70
2007,06,25,05,08,6.70
2007,06,25,05,09,6.70
2007,06,25,05,10,6.70
2007,06,25,05,11,6.70
2007,06,25,05,12,6.60
2007,06,25,05,13,6.50
2007,06,25,05,14,6.50
2007,06,25,05,15,6.40
2007,06,25,05,16,6.40
2007,06,25,05,17,6.40
2007,06,25,05,18,6.40
2007,06,25,05,19,6.40
2007,06,25,05,20,6.40
2007,06,25,05,21,6.50
2007,06,25,05,22,6.50
2007,06,25,05,23,6.60
2007,06,25,05,24,6.60
2007,06,25,05,25,6.70
2007,06,25,05,26,6.70
2007,06,25,05,27,6.70
2007,06,25,05,28,6.80
2007,06,25,05,29,6.80
2007,06,25,05,30,6.80
2007,06,25,05,31,6.90
2007,06,25,05,32,6.90
2007,06,25,05,33,6.90
2007,06,25,05,34,6.90
2007,06,25,05,35,7.00
2007,06,25,05,36,7.00
2007,06,25,05,37,7.10
2007,06,25,05,38,7.10
2007,06,25,05,39,7.10
2007,06,25,05,40,7.20
2007,06,25,05,41,7.20
2007,06,25,05,42,7.20
2007,06,25,05,43,7.20
2007,06,25,05,44,7.20
2007,06,25,05,45,7.20
2007,06,25,05,46,7.20
2007,06,25,05,47,7.10
2007,06,25,05,48,7.10
2007,06,25,05,49,7.10
2007,06,25,05,50,7.10
2007,06,25,05,51,7.10
2007,06,25,05,52,7.10
2007,06,25,05,53,7.10
2007,06,25,05,54,7.00
2007,06,25,05,55,7.00
2007,06,25,05,56,7.10
2007,06,25,05,57,7.10
2007,06,25,05,58,7.10
2007,06,25,05,59,7.10
2007,06,25,06,00,7.20
2007,06,25,06,01,7.20
2007,06,25,06,02,7.20
2007,06,25,06,03,7.20
2007,06,25,06,04,7.20
2007,06,25,06,05,7.30
2007,06,25,06,06,7.30
2007,06,25,06,07,7.30
2007,06,25,06,08,7.30
2007,06,25,06,09,7.40
2007,06,25,06,10,7.40
2007,06,25,06,11,7.40
2007,06,25,06,12,7.40
2007,06,25,06,13,7.50
2007,06,25,06,14,7.50
2007,06,25,06,15,7.60
2007,06,25,06,16,7.60
2007,06,25,06,17,7.60
2007,06,25,06,18,7.70
2007,06,25,06,19,7.70
2007,06,25,06,20,7.70
2007,06,25,06,21,7.70
2007,06,25,06,22,7.80
2007,06,25,06,23,7.80
2007,06,25,06,24,7.80
2007,06,25,06,25,7.80
2007,06,25,06,26,7.80
2007,06,25,06,27,7.90
2007,06,25,06,28,7.90
2007,06,25,06,29,7.90
2007,06,25,06,30,8.00
2007,06,25,06,31,8.10
2007,06,25,06,32,8.10
2007,06,25,06,33,8.20
2007,06,25,06,34,8.30
2007,06,25,06,35,8.40
2007,06,25,06,36,8.50
2007,06,25,06,37,8.50
2007,06,25,06,38,8.60
2007,06,25,06,39,8.70
2007,06,25,06,40,8.80
2007,06,25,06,41,8.80
2007,06,25,06,42,8.90
2007,06,25,06,43,9.00
2007,06,25,06,44,9.10
2007,06,25,06,45,9.10
2007,06,25,06,46,9.20
2007,06,25,06,47,9.30
2007,06,25,06,48,9.30
2007,06,25,06,49,9.30
2007,06,25,06,50,9.40
2007,06,25,06,51,9.40
2007,06,25,06,52,9.50
2007,06,25,06,53,9.60
2007,06,25,06,54,9.60
2007,06,25,06,55,9.60
2007,06,25,06,56,9.70
2007,06,25,06,57,9.80
2007,06,25,06,58,9.80
2007,06,25,06,59,9.90
2007,06,25,07,00,9.90
2007,06,25,07,01,10.00
2007,06,25,07,02,10.10
2007,06,25,07,03,10.10
2007,06,25,07,04,10.20
2007,06,25,07,05,10.20
2007,06,25,07,06,10.30
2007,06,25,07,07,10.40
2007,06,25,07,08,10.40
2007,06,25,07,09,10.50
2007,06,25,07,10,10.50
2007,06,25,07,11,10.60
2007,06,25,07,12,10.70
2007,06,25,07,13,10.70
2007,06,25,07,14,10.80
2007,06,25,07,15,10.90
2007,06,25,07,16,11.10
2007,06,25,07,17,11.20
2007,06,25,07,18,11.30
2007,06,25,07,19,11.40
2007,06,25,07,20,11.50
2007,06,25,07,21,11.60
2007,06,25,07,22,11.70
2007,06,25,07,23,11.80
2007,06,25,07,24,11.90
2007,06,25,07,25,12.00
2007,06,25,07,26,12.00
2007,06,25,07,27,12.10
2007,06,25,07,28,12.30
2007,06,25,07,29,12.50
2007,06,25,07,30,12.70
2007,06,25,07,31,12.90
2007,06,25,07,32,13.00
2007,06,25,07,33,13.20
2007,06,25,07,34,13.30
2007,06,25,07,35,13.40
2007,06,25,07,36,13.50
2007,06,25,07,37,13.70
2007,06,25,07,38,13.70
2007,06,25,07,39,13.80
2007,06,25,07,40,13.80
2007,06,25,07,41,13.80
2007,06,25,07,42,13.70
2007,06,25,07,43,13.70
2007,06,25,07,44,13.70
2007,06,25,07,45,13.60
2007,06,25,07,46,13.60
2007,06,25,07,47,13.60
2007,06,25,07,48,13.60
2007,06,25,07,49,13.60
2007,06,25,07,50,13.50
2007,06,25,07,51,13.40
2007,06,25,07,52,13.30
2007,06,25,07,53,13.20
2007,06,25,07,54,13.20
2007,06,25,07,55,13.20
2007,06,25,07,56,13.20
2007,06,25,07,57,13.30
2007,06,25,07,58,13.30
2007,06,25,07,59,13.30
2007,06,25,08,00,13.40
2007,06,25,08,01,13.40
2007,06,25,08,02,13.50
2007,06,25,08,03,13.50
2007,06,25,08,04,13.50
2007,06,25,08,05,13.50
2007,06,25,08,06,13.50
2007,06,25,08,07,13.60
2007,06,25,08,08,13.60
2007,06,25,08,09,13.60
2007,06,25,08,10,13.60
2007,06,25,08,11,13.60
2007,06,25,08,12,13.60
2007,06,25,08,13,13.60
2007,06,25,08,14,13.50
2007,06,25,08,15,13.50
2007,06,25,08,16,13.40
2007,06,25,08,17,13.40
2007,06,25,08,18,13.50
2007,06,25,08,19,13.50
2007,06,25,08,20,13.60
2007,06,25,08,21,13.60
2007,06,25,08,22,13.50
2007,06,25,08,23,13.50
2007,06,25,08,24,13.40
2007,06,25,08,25,13.30
2007,06,25,08,26,13.20
2007,06,25,08,27,13.10
2007,06,25,08,28,13.10
2007,06,25,08,29,13.00
2007,06,25,08,30,13.00
2007,06,25,08,31,13.00
2007,06,25,08,32,13.00
2007,06,25,08,33,13.00
2007,06,25,08,34,13.10
2007,06,25,08,35,13.10
2007,06,25,08,36,13.10
2007,06,25,08,37,13.20
2007,06,25,08,38,13.30
2007,06,25,08,39,13.40
2007,06,25,08,40,13.50
2007,06,25,08,41,13.60
2007,06,25,08,42,13.70
2007,06,25,08,43,13.80
2007,06,25,08,44,13.90
2007,06,25,08,45,13.90
2007,06,25,08,46,14.00
2007,06,25,08,47,14.10
2007,06,25,08,48,14.20
2007,06,25,08,49,14.20
2007,06,25,08,50,14.20
2007,06,25,08,51,14.20
2007,06,25,08,52,14.10
2007,06,25,08,53,14.00
2007,06,25,08,54,13.90
2007,06,25,08,55,13.90
2007,06,25,08,56,13.90
2007,06,25,08,57,13.90
2007,06,25,08,58,13.90
2007,06,25,08,59,13.80
2007,06,25,09,00,13.80
2007,06,25,09,01,13.80
2007,06,25,09,02,13.80
2007,06,25,09,03,13.80
2007,06,25,09,04,13.90
2007,06,25,09,05,13.90
2007,06,25,09,06,14.00
2007,06,25,09,07,14.00
2007,06,25,09,08,14.00
2007,06,25,09,09,14.00
2007,06,25,09,10,13.90
2007,06,25,09,11,13.80
2007,06,25,09,12,13.80
2007,06,25,09,13,13.80
2007,06,25,09,14,13.80
2007,06,25,09,15,13.80
2007,06,25,09,16,13.90
2007,06,25,09,17,14.00
2007,06,25,09,18,14.00
2007,06,25,09,19,14.10
2007,06,25,09,20,14.10
2007,06,25,09,21,14.20
2007,06,25,09,22,14.30
2007,06,25,09,23,14.30
2007,06,25,09,24,14.40
2007,06,25,09,25,14.40
2007,06,25,09,26,14.30
2007,06,25,09,27,14.30
2007,06,25,09,28,14.40
2007,06,25,09,29,14.40
2007,06,25,09,30,14.40
2007,06,25,09,31,14.40
2007,06,25,09,32,14.50
2007,06,25,09,33,14.60
2007,06,25,09,34,14.70
2007,06,25,09,35,14.90
2007,06,25,09,36,15.00
2007,06,25,09,37,15.20
2007,06,25,09,38,15.40
2007,06,25,09,39,15.50
2007,06,25,09,40,15.60
2007,06,25,09,41,15.70
2007,06,25,09,42,15.80
2007,06,25,09,43,15.80
2007,06,25,09,44,15.70
2007,06,25,09,45,15.50
2007,06,25,09,46,15.30
2007,06,25,09,47,15.20
2007,06,25,09,48,15.00
2007,06,25,09,49,15.00
2007,06,25,09,50,15.00
2007,06,25,09,51,15.00
2007,06,25,09,52,14.80
2007,06,25,09,53,14.60
2007,06,25,09,54,14.50
2007,06,25,09,55,14.40
2007,06,25,09,56,14.40
2007,06,25,09,57,14.50
2007,06,25,09,58,14.50
2007,06,25,09,59,14.60
2007,06,25,10,00,14.60
2007,06,25,10,01,14.60
2007,06,25,10,02,14.60
2007,06,25,10,03,14.60
2007,06,25,10,04,14.60
2007,06,25,10,05,14.70
2007,06,25,10,06,14.70
2007,06,25,10,07,14.80
2007,06,25,10,08,14.80
2007,06,25,10,09,14.80
2007,06,25,10,10,14.80
2007,06,25,10,11,14.90
2007,06,25,10,12,14.90
2007,06,25,10,13,15.00
2007,06,25,10,14,14.90
2007,06,25,10,15,14.90
2007,06,25,10,16,14.80
2007,06,25,10,17,14.80
2007,06,25,10,18,14.70
2007,06,25,10,19,14.60
2007,06,25,10,20,14.50
2007,06,25,10,21,14.30
2007,06,25,10,22,14.10
2007,06,25,10,23,14.00
2007,06,25,10,24,13.90
2007,06,25,10,25,13.80
2007,06,25,10,26,13.70
2007,06,25,10,27,13.70
2007,06,25,10,28,13.70
2007,06,25,10,29,13.80
2007,06,25,10,30,13.90
2007,06,25,10,31,14.00
2007,06,25,10,32,14.10
2007,06,25,10,33,14.10
2007,06,25,10,34,14.20
2007,06,25,10,35,14.30
2007,06,25,10,36,14.30
2007,06,25,10,37,14.30
2007,06,25,10,38,14.20
2007,06,25,10,39,14.20
2007,06,25,10,40,14.10
2007,06,25,10,41,14.20
2007,06,25,10,42,14.20
2007,06,25,10,43,14.20
2007,06,25,10,44,14.30
2007,06,25,10,45,14.30
2007,06,25,10,46,14.30
2007,06,25,10,47,14.40
2007,06,25,10,48,14.50
2007,06,25,10,49,14.60
2007,06,25,10,50,14.60
2007,06,25,10,51,14.60
2007,06,25,10,52,14.60
2007,06,25,10,53,14.60
2007,06,25,10,54,14.70
2007,06,25,10,55,14.70
2007,06,25,10,56,14.80
2007,06,25,10,57,14.80
2007,06,25,10,58,14.70
2007,06,25,10,59,14.70
2007,06,25,11,00,14.70
2007,06,25,11,01,14.80
2007,06,25,11,02,14.80
2007,06,25,11,03,14.80
2007,06,25,11,04,14.90
2007,06,25,11,05,15.00
2007,06,25,11,06,15.00
2007,06,25,11,07,15.00
2007,06,25,11,08,15.00
2007,06,25,11,09,15.00
2007,06,25,11,10,15.00
2007,06,25,11,11,15.00
2007,06,25,11,12,15.00
2007,06,25,11,13,15.20
2007,06,25,11,14,15.20
2007,06,25,11,15,15.20
2007,06,25,11,16,15.30
2007,06,25,11,17,15.20
2007,06,25,11,18,15.00
2007,06,25,11,19,15.00
2007,06,25,11,20,14.90
2007,06,25,11,21,14.80
2007,06,25,11,22,14.90
2007,06,25,11,23,15.00
2007,06,25,11,24,15.00
2007,06,25,11,25,15.10
2007,06,25,11,26,15.30
2007,06,25,11,27,15.40
2007,06,25,11,28,15.50
2007,06,25,11,29,15.50
2007,06,25,11,30,15.50
2007,06,25,11,31,15.30
2007,06,25,11,32,15.10
2007,06,25,11,33,15.00
2007,06,25,11,34,14.70
2007,06,25,11,35,14.50
2007,06,25,11,36,14.30
2007,06,25,11,37,14.10
2007,06,25,11,38,14.00
2007,06,25,11,39,13.90
2007,06,25,11,40,13.90
2007,06,25,11,41,13.90
2007,06,25,11,42,13.90
2007,06,25,11,43,13.90
2007,06,25,11,44,13.90
2007,06,25,11,45,13.90
2007,06,25,11,46,13.90
2007,06,25,11,47,14.00
2007,06,25,11,48,14.00
2007,06,25,11,49,14.00
2007,06,25,11,50,13.90
2007,06,25,11,51,13.80
2007,06,25,11,52,13.70
2007,06,25,11,53,13.60
2007,06,25,11,54,13.60
2007,06,25,11,55,13.60
2007,06,25,11,56,13.60
2007,06,25,11,57,13.70
2007,06,25,11,58,13.70
2007,06,25,11,59,13.80
2007,06,25,12,00,13.70
2007,06,25,12,01,13.70
2007,06,25,12,02,13.60
2007,06,25,12,03,13.60
2007,06,25,12,04,13.60
2007,06,25,12,05,13.60
2007,06,25,12,06,13.60
2007,06,25,12,07,13.70
2007,06,25,12,08,13.70
2007,06,25,12,09,13.80
2007,06,25,12,10,13.80
2007,06,25,12,11,13.90
2007,06,25,12,12,14.00
2007,06,25,12,13,14.10
2007,06,25,12,14,14.10
2007,06,25,12,15,14.10
2007,06,25,12,16,14.20
2007,06,25,12,17,14.20
2007,06,25,12,18,14.30
2007,06,25,12,19,14.30
2007,06,25,12,20,14.30
2007,06,25,12,21,14.30
2007,06,25,12,22,14.30
2007,06,25,12,23,14.40
2007,06,25,12,24,14.40
2007,06,25,12,25,14.40
2007,06,25,12,26,14.40
2007,06,25,12,27,14.30
2007,06,25,12,28,14.30
2007,06,25,12,29,14.20
2007,06,25,12,30,14.10
2007,06,25,12,31,14.00
2007,06,25,12,32,14.00
2007,06,25,12,33,13.90
2007,06,25,12,34,13.80
2007,06,25,12,35,13.80
2007,06,25,12,36,13.80
2007,06,25,12,37,13.80
2007,06,25,12,38,13.90
2007,06,25,12,39,13.90
2007,06,25,12,40,13.90
2007,06,25,12,41,13.90
2007,06,25,12,42,13.90
2007,06,25,12,43,13.80
2007,06,25,12,44,13.80
2007,06,25,12,45,13.80
2007,06,25,12,46,13.80
2007,06,25,12,47,13.80
2007,06,25,12,48,13.80
2007,06,25,12,49,13.80
2007,06,25,12,50,13.80
2007,06,25,12,51,13.80
2007,06,25,12,52,13.80
2007,06,25,12,53,13.80
2007,06,25,12,54,13.80
2007,06,25,12,55,13.90
2007,06,25,12,56,13.90
2007,06,25,12,57,13.90
2007,06,25,12,58,14.00
2007,06,25,12,59,14.00
2007,06,25,13,00,13.90
2007,06,25,13,01,13.90
2007,06,25,13,02,14.00
2007,06,25,13,03,14.10
2007,06,25,13,04,14.10
2007,06,25,13,05,14.20
2007,06,25,13,06,14.20
2007,06,25,13,07,14.20
2007,06,25,13,08,14.30
2007,06,25,13,09,14.30
2007,06,25,13,10,14.40
2007,06,25,13,11,14.50
2007,06,25,13,12,14.50
2007,06,25,13,13,14.50
2007,06,25,13,14,14.50
2007,06,25,13,15,14.50
2007,06,25,13,16,14.50
2007,06,25,13,17,14.50
2007,06,25,13,18,14.50
2007,06,25,13,19,14.40
2007,06,25,13,20,14.40
2007,06,25,13,21,14.40
2007,06,25,13,22,14.50
2007,06,25,13,23,14.40
2007,06,25,13,24,14.40
2007,06,25,13,25,14.40
2007,06,25,13,26,14.40
2007,06,25,13,27,14.40
2007,06,25,13,28,14.50
2007,06,25,13,29,14.50
2007,06,25,13,30,14.50
2007,06,25,13,31,14.40
2007,06,25,13,32,14.50
2007,06,25,13,33,14.50
2007,06,25,13,34,14.50
2007,06,25,13,35,14.50
2007,06,25,13,36,14.50
2007,06,25,13,37,14.40
2007,06,25,13,38,14.40
2007,06,25,13,39,14.40
2007,06,25,13,40,14.40
2007,06,25,13,41,14.30
2007,06,25,13,42,14.30
2007,06,25,13,43,14.20
2007,06,25,13,44,14.20
2007,06,25,13,45,14.20
2007,06,25,13,46,14.10
2007,06,25,13,47,14.10
2007,06,25,13,48,14.10
2007,06,25,13,49,14.10
2007,06,25,13,50,14.20
2007,06,25,13,51,14.20
2007,06,25,13,52,14.30
2007,06,25,13,53,14.30
2007,06,25,13,54,14.30
2007,06,25,13,55,14.20
2007,06,25,13,56,14.30
2007,06,25,13,57,14.30
2007,06,25,13,58,14.30
2007,06,25,13,59,14.40
2007,06,25,14,00,14.40
2007,06,25,14,01,14.40
2007,06,25,14,02,14.50
2007,06,25,14,03,14.60
2007,06,25,14,04,14.60
2007,06,25,14,05,14.60
2007,06,25,14,06,14.60
2007,06,25,14,07,14.60
2007,06,25,14,08,14.60
2007,06,25,14,09,14.60
2007,06,25,14,10,14.50
2007,06,25,14,11,14.50
2007,06,25,14,12,14.50
2007,06,25,14,13,14.50
2007,06,25,14,14,14.50
2007,06,25,14,15,14.50
2007,06,25,14,16,14.40
2007,06,25,14,17,14.40
2007,06,25,14,18,14.40
2007,06,25,14,19,14.40
2007,06,25,14,20,14.40
2007,06,25,14,21,14.40
2007,06,25,14,22,14.40
2007,06,25,14,23,14.40
2007,06,25,14,24,14.40
2007,06,25,14,25,14.50
2007,06,25,14,26,14.50
2007,06,25,14,27,14.60
2007,06,25,14,28,14.60
2007,06,25,14,29,14.60
2007,06,25,14,30,14.60
2007,06,25,14,31,14.50
2007,06,25,14,32,14.50
2007,06,25,14,33,14.50
2007,06,25,14,34,14.50
2007,06,25,14,35,14.50
2007,06,25,14,36,14.60
2007,06,25,14,37,14.60
2007,06,25,14,38,14.60
2007,06,25,14,39,14.60
2007,06,25,14,40,14.60
2007,06,25,14,41,14.50
2007,06,25,14,42,14.50
2007,06,25,14,43,14.40
2007,06,25,14,44,14.40
2007,06,25,14,45,14.30
2007,06,25,14,46,14.30
2007,06,25,14,47,14.40
2007,06,25,14,48,14.40
2007,06,25,14,49,14.40
2007,06,25,14,50,14.50
2007,06,25,14,51,14.50
2007,06,25,14,52,14.40
2007,06,25,14,53,14.40
2007,06,25,14,54,14.40
2007,06,25,14,55,14.40
2007,06,25,14,56,14.40
2007,06,25,14,57,14.40
2007,06,25,14,58,14.50
2007,06,25,14,59,14.50
2007,06,25,15,00,14.50
2007,06,25,15,01,14.40
2007,06,25,15,02,14.40
2007,06,25,15,03,14.40
2007,06,25,15,04,14.40
2007,06,25,15,05,14.40
2007,06,25,15,06,14.40
2007,06,25,15,07,14.40
2007,06,25,15,08,14.40
2007,06,25,15,09,14.40
2007,06,25,15,10,14.40
2007,06,25,15,11,14.40
2007,06,25,15,12,14.50
2007,06,25,15,13,14.50
2007,06,25,15,14,14.50
2007,06,25,15,15,14.50
2007,06,25,15,16,14.50
2007,06,25,15,17,14.50
2007,06,25,15,18,14.50
2007,06,25,15,19,14.50
2007,06,25,15,20,14.50
2007,06,25,15,21,14.60
2007,06,25,15,22,14.60
2007,06,25,15,23,14.50
2007,06,25,15,24,14.60
2007,06,25,15,25,14.60
2007,06,25,15,26,14.50
2007,06,25,15,27,14.50
2007,06,25,15,28,14.50
2007,06,25,15,29,14.50
2007,06,25,15,30,14.60
2007,06,25,15,31,14.60
2007,06,25,15,32,14.60
2007,06,25,15,33,14.60
2007,06,25,15,34,14.60
2007,06,25,15,35,14.60
2007,06,25,15,36,14.60
2007,06,25,15,37,14.70
2007,06,25,15,38,14.70
2007,06,25,15,39,14.70
2007,06,25,15,40,14.70
2007,06,25,15,41,14.80
2007,06,25,15,42,14.80
2007,06,25,15,43,14.90
2007,06,25,15,44,14.90
2007,06,25,15,45,15.00
2007,06,25,15,46,15.00
2007,06,25,15,47,15.00
2007,06,25,15,48,15.00
2007,06,25,15,49,15.00
2007,06,25,15,50,15.00
2007,06,25,15,51,15.00
2007,06,25,15,52,14.90
2007,06,25,15,53,14.80
2007,06,25,15,54,14.80
2007,06,25,15,55,14.80
2007,06,25,15,56,14.90
2007,06,25,15,57,14.90
2007,06,25,15,58,14.90
2007,06,25,15,59,14.90
2007,06,25,16,00,14.90
2007,06,25,16,01,14.90
2007,06,25,16,02,14.80
2007,06,25,16,03,14.80
2007,06,25,16,04,14.70
2007,06,25,16,05,14.70
2007,06,25,16,06,14.70
2007,06,25,16,07,14.70
2007,06,25,16,08,14.60
2007,06,25,16,09,14.70
2007,06,25,16,10,14.70
2007,06,25,16,11,14.70
2007,06,25,16,12,14.70
2007,06,25,16,13,14.70
2007,06,25,16,14,14.70
2007,06,25,16,15,14.70
2007,06,25,16,16,14.80
2007,06,25,16,17,14.80
2007,06,25,16,18,14.90
2007,06,25,16,19,14.90
2007,06,25,16,20,14.80
2007,06,25,16,21,14.80
2007,06,25,16,22,14.80
2007,06,25,16,23,14.80
2007,06,25,16,24,14.70
2007,06,25,16,25,14.70
2007,06,25,16,26,14.70
2007,06,25,16,27,14.70
2007,06,25,16,28,14.70
2007,06,25,16,29,14.70
2007,06,25,16,30,14.70
2007,06,25,16,31,14.70
2007,06,25,16,32,14.70
2007,06,25,16,33,14.60
2007,06,25,16,34,14.60
2007,06,25,16,35,14.60
2007,06,25,16,36,14.70
2007,06,25,16,37,14.70
2007,06,25,16,38,14.70
2007,06,25,16,39,14.70
2007,06,25,16,40,14.70
2007,06,25,16,41,14.70
2007,06,25,16,42,14.70
2007,06,25,16,43,14.60
2007,06,25,16,44,14.70
2007,06,25,16,45,14.70
2007,06,25,16,46,14.70
2007,06,25,16,47,14.70
2007,06,25,16,48,14.70
2007,06,25,16,49,14.70
2007,06,25,16,50,14.70
2007,06,25,16,51,14.70
2007,06,25,16,52,14.70
2007,06,25,16,53,14.70
2007,06,25,16,54,14.70
2007,06,25,16,55,14.70
2007,06,25,16,56,14.70
2007,06,25,16,57,14.70
2007,06,25,16,58,14.70
2007,06,25,16,59,14.70
2007,06,25,17,00,14.70
2007,06,25,17,01,14.70
2007,06,25,17,02,14.70
2007,06,25,17,03,14.70
2007,06,25,17,04,14.70
2007,06,25,17,05,14.70
2007,06,25,17,06,14.70
2007,06,25,17,07,14.80
2007,06,25,17,08,14.80
2007,06,25,17,09,14.80
2007,06,25,17,10,14.70
2007,06,25,17,11,14.70
2007,06,25,17,12,14.70
2007,06,25,17,13,14.70
2007,06,25,17,14,14.70
2007,06,25,17,15,14.80
2007,06,25,17,16,14.80
2007,06,25,17,17,14.80
2007,06,25,17,18,14.80
2007,06,25,17,19,14.90
2007,06,25,17,20,15.00
2007,06,25,17,21,15.00
2007,06,25,17,22,15.00
2007,06,25,17,23,15.00
2007,06,25,17,24,15.00
2007,06,25,17,25,15.00
2007,06,25,17,26,15.00
2007,06,25,17,27,15.00
2007,06,25,17,28,15.00
2007,06,25,17,29,15.00
2007,06,25,17,30,15.00
2007,06,25,17,31,15.00
2007,06,25,17,32,15.00
2007,06,25,17,33,15.00
2007,06,25,17,34,15.00
2007,06,25,17,35,15.00
2007,06,25,17,36,15.00
2007,06,25,17,37,15.00